Regional Weather Roundup
Issued by NWS

Home | Current Version | Previous Version | Graphics & Text | Print | Product List | Glossary Off
Versions: 1 2 3 4 5 6 7 8 9 10 11 12 13 14 15 16 17 18 19 20 21 22 23 24 25 26 27 28 29 30 31 32 33 34 35 36 37 38 39 40 41 42 43 44 45 46 47 48 49 50

000
ASUS43 KMKX 170620
RWRWI

WISCONSIN REGIONAL WEATHER ROUNDUP
NATIONAL WEATHER SERVICE MILWAUKEE/SULLIVAN WI
1200 AM CST TUE JAN 17 2017

NOTE: "FAIR" INDICATES FEW OR NO CLOUDS BELOW 12,000 FEET WITH NO
SIGNIFICANT WEATHER AND/OR OBSTRUCTIONS TO VISIBILITY.

WIZ001-002-006>008-014>016-023>028-170700-
NORTHWEST WISCONSIN

CITY           SKY/WX    TMP DP  RH WIND       PRES   REMARKS
SUPERIOR ARPT  MOCLDY    19  17  91 CALM      30.02S
6HR MIN TEMP:  18; 6HR MAX TEMP:  24;

ASHLAND        CLOUDY    24  20  84 E3        30.01F
6HR MIN TEMP:  23; 6HR MAX TEMP:  31;

HAYWARD        CLOUDY    27  21  78 CALM      29.98F
6HR MIN TEMP:  24; 6HR MAX TEMP:  28;

SIREN          CLOUDY    29  21  71 CALM      29.98F
6HR MIN TEMP:  24; 6HR MAX TEMP:  30;

CUMBERLAND     LGT RAIN  30  25  80 N6        29.96S WCI  24
RICE LAKE      FLURRIES  31  27  85 N7        29.98S WCI  24
6HR MIN TEMP:  23; 6HR MAX TEMP:  31;

CHETEK         LGT SNOW  31  30  97 NE5       29.95F WCI  26
6HR MIN TEMP:  27; 6HR MAX TEMP:  31; 6HR PCP:  0.11;

LADYSMITH      DRIZZLE   32  27  82 N3        29.97F
6HR MIN TEMP:  26; 6HR MAX TEMP:  33;

EAU CLAIRE     MIX PCPN  32  32 100 NE6       29.92F FOG     WCI  26
6HR MIN TEMP:  29; 6HR MAX TEMP:  32; 6HR PCP:  0.51;

MENOMONIE      LGT RAIN  33  33  99 N3        29.94S
6HR MIN TEMP:  30; 6HR MAX TEMP:  33; 6HR PCP:  0.31;

NEW RICHMOND   LGT SNOW  31  30  97 N8        29.96S WCI  23
6HR MIN TEMP:  29; 6HR MAX TEMP:  32; 6HR PCP:  0.03;

OSCEOLA        FLURRIES  30  23  75 N5        30.00S WCI  25
6HR MIN TEMP:  28; 6HR MAX TEMP:  30;

$$

WIZ003>005-009-010-017-018-170700-
NORTH CENTRAL WISCONSIN

CITY           SKY/WX    TMP DP  RH WIND       PRES   REMARKS
MANITOWISH WTR MOCLDY    22  21  93 CALM      29.96F
6HR MIN TEMP:  19; 6HR MAX TEMP:  28;

ARBOR VITAE    CLOUDY    27  22  84 CALM      29.96S
6HR MIN TEMP:  23; 6HR MAX TEMP:  32;

WOODRUFF       CLOUDY    27  22  84 CALM      29.96S
6HR MIN TEMP:  23; 6HR MAX TEMP:  32;

RHINELANDER    CLOUDY    29  22  75 NE3       29.95F
6HR MIN TEMP:  24; 6HR MAX TEMP:  31;

EAGLE RIVER    CLOUDY    21  20  96 CALM      29.96S
6HR MIN TEMP:  20; 6HR MAX TEMP:  27;

LAND O LAKES   CLOUDY    21  19  91 CALM      29.98F
6HR MIN TEMP:  20; 6HR MAX TEMP:  25;

PHILLIPS       CLOUDY    30  23  75 NE5       29.96S WCI  25
6HR MIN TEMP:  25; 6HR MAX TEMP:  30;

TOMAHAWK       LGT RAIN  30  26  84 CALM      29.96S
6HR MIN TEMP:  24; 6HR MAX TEMP:  30;

MEDFORD        MIX PCPN  31  30  96 NE6       29.92F WCI  26
6HR MIN TEMP:  30; 6HR MAX TEMP:  32; 6HR PCP:  0.22;

MERRILL        FLURRIES  31  30  96 NE5         N/A  WCI  26
6HR MIN TEMP:  28; 6HR MAX TEMP:  31; 6HR PCP:  0.09;

$$

WIZ029-030-035-036-043>047-170700-
CENTRAL WISCONSIN

CITY           SKY/WX    TMP DP  RH WIND       PRES   REMARKS
WAUSAU         CLOUDY    32  31  96 NE3       29.92F FOG
6HR MIN TEMP:  29; 6HR MAX TEMP:  32; 6HR PCP:  0.25;

MOSINEE        MIX PCPN  32  32 100 NE3       29.93F
MARSHFIELD     CLOUDY    33  31  92 E14       29.89F FOG     WCI  23
6HR MIN TEMP:  30; 6HR MAX TEMP:  33;

STEVENS POINT  MIX PCPN  31  31 100 NE7       29.93F WCI  24
6HR MIN TEMP:  27; 6HR MAX TEMP:  31; 6HR PCP:  0.18;

WAUPACA        DRIZZLE   34  32  92 CALM      29.94F
6HR MIN TEMP:  32; 6HR MAX TEMP:  34; 6HR PCP:  0.01;

WAUTOMA        MIX PCPN N/A N/A N/A E9        29.91F
                                      6HR PCP:  0.22;

WISC RAPIDS    LGT RAIN  34  34 100 E9        29.92F FOG     WCI  26
CAMP DOUGLAS   CLOUDY    32  32 100 E3        29.88F FOG
6HR MIN TEMP:  33; 6HR MAX TEMP:  33; 6HR PCP:  0.12;

$$

WIZ011>013-019>022-031-037>040-048>050-170700-
NORTHEAST WISCONSIN

CITY           SKY/WX    TMP DP  RH WIND       PRES   REMARKS
ANTIGO         MIX PCPN  31  30  98 E9        29.94F WCI  23
6HR MIN TEMP:  26; 6HR MAX TEMP:  31; 6HR PCP:  0.06;

SHAWANO        DRIZZLE   33  31  94 NE7       29.96F WCI  26
6HR MIN TEMP:  31; 6HR MAX TEMP:  33; 6HR PCP:  0.27;

OCONTO         CLOUDY    32  30  94 NE3       29.98F
6HR MIN TEMP:  29; 6HR MAX TEMP:  32; 6HR PCP:  0.25;

STURGEON BAY   MIX PCPN  34  32  93 E8        29.98F FOG     WCI  27
6HR MIN TEMP:  31; 6HR MAX TEMP:  33; 6HR PCP:  0.45;

GREEN BAY      LGT RAIN  34  34 100 NE12      29.95F FOG     WCI  25
6HR MIN TEMP:  33; 6HR MAX TEMP:  35; 6HR PCP:  0.43;

MANITOWOC      LGT RAIN  36  34  92 E10       29.94F WCI  28
6HR MIN TEMP:  33; 6HR MAX TEMP:  36; 6HR PCP:  0.40;

APPLETON       DRIZZLE   32  32 100 NE6       29.92F WCI  26
CLINTONVILLE   MIX PCPN  32  32 100 NE5       29.95F WCI  27
OSHKOSH        CLOUDY    34  32  92 NE8       29.90F FOG     WCI  27
6HR MIN TEMP:  33; 6HR MAX TEMP:  34; 6HR PCP:  0.27;

$$

WIZ032>034-041-042-053>061-170700-
SOUTHWEST WISCONSIN

CITY           SKY/WX    TMP DP  RH WIND       PRES   REMARKS
LA CROSSE      CLOUDY    36  32  85 W5        29.90F FOG     WCI  32
6HR MIN TEMP:  36; 6HR MAX TEMP:  38; 6HR PCP:  0.16;

SPARTA         MIX PCPN  32  32  99 E3        29.90F
6HR MIN TEMP:  32; 6HR MAX TEMP:  32; 6HR PCP:  0.24;

VIROQUA        CLOUDY    32  32 100 CALM      29.86F
6HR MIN TEMP:  32; 6HR MAX TEMP:  32; 6HR PCP:  0.06;

BOSCOBEL       CLOUDY    34  33  96 NE3       29.88F FOG
6HR MIN TEMP:  34; 6HR MAX TEMP:  34; 6HR PCP:  0.03;

PRAIRIE DU CHI DRIZZLE   33  32  96 CALM      29.86F
6HR MIN TEMP:  33; 6HR MAX TEMP:  33; 6HR PCP:  0.05;

PLATTEVILLE    CLOUDY    34  34 100 NE7       29.83F WCI  28
6HR MIN TEMP:  33; 6HR MAX TEMP:  34;

$$

WIZ056-057-062-063-064-067-068-170700-
SOUTH CENTRAL WISCONSIN

CITY           SKY/WX    TMP DP  RH WIND       PRES   REMARKS
REEDSBURG      CLOUDY    32  32 100 NE5       29.87F FOG     WCI  27
6HR MIN TEMP:  32; 6HR MAX TEMP:  32; 6HR PCP:  0.05;

BARABOO/DELLS  MIX PCPN  32  32  99 NE6       29.87F WCI  27
6HR MIN TEMP:  32; 6HR MAX TEMP:  32; 6HR PCP:  0.05;

LONE ROCK      LGT RAIN  34  32  92 NE7       29.86F FOG     WCI  28
6HR MIN TEMP:  34; 6HR MAX TEMP:  34; 6HR PCP:  0.04;

MINERAL POINT  LGT RAIN  34  34 100 NE6       29.83F VSB 1   WCI  29
MADISON        MIX PCPN  34  34 100 NE5       29.86F FOG     WCI  30
6HR MIN TEMP:  33; 6HR MAX TEMP:  34; 6HR PCP:  0.18;

MIDDLETON      CLOUDY    35  35 100 NE5       29.86F WCI  31
6HR MIN TEMP:  34; 6HR MAX TEMP:  35; 6HR PCP:  0.07;

WATERTOWN      CLOUDY    34  34 100 E7        29.85F FOG     WCI  28
6HR MIN TEMP:  33; 6HR MAX TEMP:  35; 6HR PCP:  0.08;

MONROE         FOG       34  34 100 NE9       29.81F VSB 1/4 WCI  26
JANESVILLE     CLOUDY    36  36 100 NE5       29.83F FOG     WCI  32
$$

WIZ051-052-058>065-066-070>072-170700-
SOUTHEAST WISCONSIN

CITY           SKY/WX    TMP DP  RH WIND       PRES   REMARKS
MILWAUKEE      DRZL/FOG  37  35  92 NE7       29.88F VSB 1   WCI  32
6HR MIN TEMP:  36; 6HR MAX TEMP:  37; 6HR PCP:  0.19;

WAUKESHA       FOG       32  32 100 NE8       29.87F VSB 1   WCI  25
MILWAUKEE/TIMM LGT RAIN  34  32  93 E6        29.89F WCI  29
RACINE         MIX PCPN  37  35  92 E7        29.88F VSB 1/2 WCI  32
6HR MIN TEMP:  36; 6HR MAX TEMP:  37; 6HR PCP:  0.17;

KENOSHA        FOG       37  36  96 E12       29.85F VSB 3/4 WCI  29
6HR MIN TEMP:  36; 6HR MAX TEMP:  37; 6HR PCP:  0.28;

FOND DU LAC    MIX PCPN  34  31  88 NE7       29.89F FOG     WCI  28
6HR MIN TEMP:  34; 6HR MAX TEMP:  35; 6HR PCP:  0.29;

SHEBOYGAN      CLOUDY    35  34  96 E6        29.92F FOG     WCI  30
6HR MIN TEMP:  33; 6HR MAX TEMP:  35; 6HR PCP:  0.24;

WEST BEND      LGT RAIN  34  34 100 E7        29.89F VSB 1   WCI  28
JUNEAU         FOG       33  33  98 NE7       29.88F VSB 1/2 WCI  27
6HR MIN TEMP:  32; 6HR MAX TEMP:  34; 6HR PCP:  0.12;

$$

LSZ147-162-170700-
LAKE SUPERIOR

STATION/POSITION TIME  TEMP    WIND        PRES    WAVE
                       AIR SEA DIR/SP/G            HT/PER
                 (UTC) (F)     (DEG/KT/KT) (MB)    (FT/S)
DEVILS ISLAND    0600   33      60/  7/  7 1017.2F
PORT WING        0540   21     130/  2/  3 1016.6S
SAXON HARBOR     0530   26     170/  3/  4 1016.3S
$$

LMZ867-665-643>646-170700-
LAKE MICHIGAN

STATION/POSITION TIME  TEMP    WIND        PRES    WAVE
                       AIR SEA DIR/SP/G            HT/PER
                 (UTC) (F)     (DEG/KT/KT) (MB)    (FT/S)
NORTHPORT PIER   0603   33      CALM  /  7 1016.3
SISTER BAY       0550   33     120/  4/  6   N/A
ALGOMA LAKESHC1F1C2F2C3F3C4F4C5F5C6F6C7F7C8M1C9M2Ca!



USA.gov is the U.S. government's official web portal to all federal, state and local government web resources and services.